| time (UTC) | temp C | wind direction | speed KPH | gust KPH | rain 1hr cm | rain 24hr cm | rain mn cm | humidity % | barometer mb |
| 20260505015005 | 15 | 309 | 9.7 | 17.7 | 0.00 | 0.00 | 0.00 | 48 | 1006.7 |
| 20260505014520 | 14 | 235 | 3.2 | 12.9 | 0.00 | 0.00 | 0.00 | 48 | 1006.5 |
| 20260505014004 | 15 | 226 | 0.0 | 3.2 | 0.00 | 0.00 | 0.00 | 45 | 1006.3 |
| 20260505013503 | 15 | 226 | 0.0 | 3.2 | 0.00 | 0.00 | 0.00 | 45 | 1006.3 |
| 20260505013024 | 15 | 226 | 0.0 | 3.2 | 0.00 | 0.00 | 0.00 | 44 | 1006.2 |
| 20260505012504 | 16 | 226 | 0.0 | 3.2 | 0.00 | 0.00 | 0.00 | 43 | 1006.1 |
| 20260505012004 | 16 | 226 | 0.0 | 3.2 | 0.00 | 0.00 | 0.00 | 42 | 1006.1 |
| 20260505011508 | 16 | 226 | 0.0 | 3.2 | 0.00 | 0.00 | 0.00 | 41 | 1006.0 |
| 20260505011005 | 16 | 226 | 1.6 | 6.4 | 0.00 | 0.00 | 0.00 | 41 | 1005.9 |
| 20260505010504 | 16 | 226 | 1.6 | 6.4 | 0.00 | 0.00 | 0.00 | 42 | 1005.9 |
| 20260505010010 | 16 | 234 | 1.6 | 4.8 | 0.00 | 0.00 | 0.00 | 41 | 1005.9 |
| 20260505005507 | 16 | 246 | 1.6 | 6.4 | 0.00 | 0.00 | 0.00 | 41 | 1005.8 |
| 20260505005008 | 16 | 253 | 3.2 | 6.4 | 0.00 | 0.00 | 0.00 | 41 | 1005.8 |
| 20260505004517 | 16 | 263 | 3.2 | 6.4 | 0.00 | 0.00 | 0.00 | 41 | 1005.7 |
| 20260505004009 | 16 | 259 | 3.2 | 6.4 | 0.00 | 0.00 | 0.00 | 41 | 1005.6 |
| 20260505003506 | 17 | 278 | 3.2 | 6.4 | 0.00 | 0.00 | 0.00 | 40 | 1005.6 |
| 20260505003004 | 16 | 244 | 1.6 | 6.4 | 0.00 | 0.00 | 0.00 | 41 | 1005.5 |
| 20260505002504 | 16 | 244 | 1.6 | 4.8 | 0.00 | 0.00 | 0.00 | 41 | 1005.5 |
| 20260505002004 | 17 | 249 | 1.6 | 4.8 | 0.00 | 0.00 | 0.00 | 40 | 1005.3 |
| 20260505001506 | 16 | 277 | 1.6 | 4.8 | 0.00 | 0.00 | 0.00 | 41 | 1005.3 |
| 20260505001005 | 16 | 219 | 1.6 | 6.4 | 0.00 | 0.00 | 0.00 | 41 | 1005.2 |
| 20260505000503 | 17 | 207 | 1.6 | 6.4 | 0.00 | 0.00 | 0.00 | 40 | 1005.1 |
| 20260505000022 | 17 | 248 | 1.6 | 6.4 | 0.00 | 0.00 | 0.00 | 40 | 1005.0 |
| 20260504235504 | 17 | 260 | 1.6 | 6.4 | 0.00 | 0.00 | 0.00 | 39 | 1005.0 |
| 20260504235004 | 17 | 235 | 3.2 | 9.7 | 0.00 | 0.00 | 0.00 | 40 | 1004.9 |
| 20260504234521 | 17 | 256 | 3.2 | 9.7 | 0.00 | 0.00 | 0.00 | 40 | 1004.9 |
| 20260504234008 | 17 | 240 | 1.6 | 4.8 | 0.00 | 0.00 | 0.00 | 39 | 1004.8 |
| 20260504233506 | 17 | 234 | 1.6 | 4.8 | 0.00 | 0.00 | 0.00 | 38 | 1004.8 |
| 20260504233020 | 17 | 233 | 1.6 | 4.8 | 0.00 | 0.00 | 0.00 | 38 | 1004.9 |
| 20260504232508 | 18 | 241 | 1.6 | 6.4 | 0.00 | 0.00 | 0.00 | 37 | 1004.9 |
| 20260504232003 | 18 | 240 | 1.6 | 6.4 | 0.00 | 0.00 | 0.00 | 36 | 1004.8 |
| 20260504231510 | 18 | 221 | 1.6 | 9.7 | 0.00 | 0.00 | 0.00 | 37 | 1004.6 |
| 20260504231004 | 18 | 224 | 3.2 | 9.7 | 0.00 | 0.00 | 0.00 | 35 | 1004.4 |
| 20260504230504 | 19 | 231 | 3.2 | 9.7 | 0.00 | 0.00 | 0.00 | 35 | 1004.3 |
| 20260504230006 | 19 | 221 | 3.2 | 11.3 | 0.00 | 0.00 | 0.00 | 35 | 1004.3 |
| 20260504225502 | 19 | 259 | 1.6 | 11.3 | 0.00 | 0.00 | 0.00 | 34 | 1004.2 |
| 20260504225005 | 19 | 221 | 6.4 | 9.7 | 0.00 | 0.00 | 0.00 | 34 | 1004.2 |
| 20260504224511 | 19 | 234 | 3.2 | 9.7 | 0.00 | 0.00 | 0.00 | 34 | 1004.1 |
| 20260504224011 | 20 | 225 | 3.2 | 9.7 | 0.00 | 0.00 | 0.00 | 34 | 1004.0 |
| 20260504223510 | 20 | 241 | 4.8 | 12.9 | 0.00 | 0.00 | 0.00 | 34 | 1004.0 |
| 20260504223016 | 20 | 259 | 4.8 | 12.9 | 0.00 | 0.00 | 0.00 | 33 | 1004.0 |
| 20260504222505 | 20 | 267 | 3.2 | 17.7 | 0.00 | 0.00 | 0.00 | 33 | 1004.0 |
| 20260504222007 | 20 | 244 | 4.8 | 17.7 | 0.00 | 0.00 | 0.00 | 32 | 1004.0 |
| 20260504221521 | 20 | 277 | 8.0 | 19.3 | 0.00 | 0.00 | 0.00 | 31 | 1004.2 |
| 20260504221004 | 20 | 276 | 6.4 | 19.3 | 0.00 | 0.00 | 0.00 | 32 | 1004.0 |
| 20260504220508 | 20 | 238 | 4.8 | 17.7 | 0.00 | 0.00 | 0.00 | 33 | 1004.0 |
| 20260504220011 | 20 | 269 | 4.8 | 17.7 | 0.00 | 0.00 | 0.00 | 33 | 1004.0 |
| 20260504215505 | 20 | 234 | 6.4 | 20.9 | 0.00 | 0.00 | 0.00 | 31 | 1004.0 |
| 20260504215006 | 20 | 286 | 8.0 | 20.9 | 0.00 | 0.00 | 0.00 | 32 | 1004.1 |
| 20260504214510 | 21 | 276 | 8.0 | 17.7 | 0.00 | 0.00 | 0.00 | 31 | 1004.0 |
| 20260504214004 | 21 | 246 | 8.0 | 17.7 | 0.00 | 0.00 | 0.00 | 31 | 1004.0 |
| 20260504213505 | 21 | 227 | 8.0 | 16.1 | 0.00 | 0.00 | 0.00 | 31 | 1003.9 |
| 20260504213016 | 21 | 263 | 6.4 | 19.3 | 0.00 | 0.00 | 0.00 | 31 | 1003.8 |
| 20260504212509 | 21 | 208 | 6.4 | 19.3 | 0.00 | 0.00 | 0.00 | 33 | 1003.9 |
| 20260504212011 | 21 | 235 | 4.8 | 16.1 | 0.00 | 0.00 | 0.00 | 32 | 1003.9 |
| 20260504211517 | 21 | 243 | 6.4 | 16.1 | 0.00 | 0.00 | 0.00 | 33 | 1003.9 |
| 20260504211006 | 20 | 212 | 6.4 | 19.3 | 0.00 | 0.00 | 0.00 | 33 | 1003.9 |
| 20260504210511 | 20 | 279 | 9.7 | 20.9 | 0.00 | 0.00 | 0.00 | 33 | 1003.9 |
| 20260504210006 | 20 | 268 | 8.0 | 20.9 | 0.00 | 0.00 | 0.00 | 33 | 1003.7 |
| 20260504205509 | 21 | 286 | 6.4 | 19.3 | 0.00 | 0.00 | 0.00 | 31 | 1003.8 |
| 20260504205007 | 21 | 258 | 8.0 | 24.1 | 0.00 | 0.00 | 0.00 | 32 | 1003.7 |
| 20260504204508 | 21 | 243 | 12.9 | 24.1 | 0.00 | 0.00 | 0.00 | 31 | 1003.7 |
| 20260504204006 | 21 | 227 | 6.4 | 20.9 | 0.00 | 0.00 | 0.00 | 32 | 1003.7 |
| 20260504203504 | 21 | 219 | 11.3 | 22.5 | 0.00 | 0.00 | 0.00 | 32 | 1003.7 |
| 20260504203020 | 21 | 247 | 8.0 | 22.5 | 0.00 | 0.00 | 0.00 | 32 | 1003.5 |
| 20260504202504 | 21 | 248 | 8.0 | 16.1 | 0.00 | 0.00 | 0.00 | 31 | 1003.7 |
| 20260504202009 | 21 | 234 | 6.4 | 16.1 | 0.00 | 0.00 | 0.00 | 33 | 1003.7 |
| 20260504201520 | 20 | 267 | 8.0 | 25.7 | 0.00 | 0.00 | 0.00 | 31 | 1003.7 |
| 20260504201008 | 22 | 288 | 8.0 | 25.7 | 0.00 | 0.00 | 0.00 | 32 | 1003.6 |
| 20260504200514 | 22 | 254 | 11.3 | 22.5 | 0.00 | 0.00 | 0.00 | 31 | 1003.8 |
| 20260504200025 | 22 | 276 | 8.0 | 20.9 | 0.00 | 0.00 | 0.00 | 31 | 1003.6 |
| 20260504195508 | 22 | 252 | 11.3 | 20.9 | 0.00 | 0.00 | 0.00 | 30 | 1003.7 |
| 20260504195008 | 21 | 308 | 6.4 | 27.4 | 0.00 | 0.00 | 0.00 | 31 | 1003.8 |
| 20260504194515 | 21 | 231 | 11.3 | 27.4 | 0.00 | 0.00 | 0.00 | 32 | 1004.0 |
| 20260504194004 | 21 | 261 | 9.7 | 25.7 | 0.00 | 0.00 | 0.00 | 33 | 1004.0 |
| 20260504193505 | 20 | 238 | 12.9 | 25.7 | 0.00 | 0.00 | 0.00 | 31 | 1004.1 |
| 20260504193023 | 21 | 252 | 6.4 | 17.7 | 0.00 | 0.00 | 0.00 | 33 | 1004.2 |
| 20260504192508 | 20 | 247 | 6.4 | 20.9 | 0.00 | 0.00 | 0.00 | 32 | 1004.0 |
| 20260504192008 | 20 | 248 | 6.4 | 20.9 | 0.00 | 0.00 | 0.00 | 32 | 1004.0 |
| 20260504191516 | 20 | 250 | 8.0 | 20.9 | 0.00 | 0.00 | 0.00 | 33 | 1004.2 |
| 20260504191009 | 20 | 244 | 9.7 | 22.5 | 0.00 | 0.00 | 0.00 | 32 | 1004.3 |
| 20260504190508 | 20 | 198 | 9.7 | 22.5 | 0.00 | 0.00 | 0.00 | 32 | 1004.2 |
| 20260504190032 | 20 | 228 | 8.0 | 17.7 | 0.00 | 0.00 | 0.00 | 33 | 1004.2 |
| 20260504185510 | 20 | 284 | 4.8 | 16.1 | 0.00 | 0.00 | 0.00 | 32 | 1004.3 |
| 20260504185007 | 20 | 225 | 6.4 | 19.3 | 0.00 | 0.00 | 0.00 | 32 | 1004.3 |
| 20260504184533 | 20 | 227 | 8.0 | 19.3 | 0.00 | 0.00 | 0.00 | 30 | 1004.3 |
| 20260504184010 | 20 | 271 | 11.3 | 17.7 | 0.00 | 0.00 | 0.00 | 31 | 1004.4 |
| 20260504183513 | 21 | 190 | 4.8 | 17.7 | 0.00 | 0.00 | 0.00 | 31 | 1004.3 |
| 20260504183012 | 21 | 263 | 6.4 | 17.7 | 0.00 | 0.00 | 0.00 | 33 | 1004.2 |
| 20260504182506 | 21 | 291 | 9.7 | 27.4 | 0.00 | 0.00 | 0.00 | 30 | 1004.3 |
| 20260504182006 | 20 | 240 | 12.9 | 27.4 | 0.00 | 0.00 | 0.00 | 30 | 1004.2 |
| 20260504181526 | 21 | 250 | 12.9 | 27.4 | 0.00 | 0.00 | 0.00 | 30 | 1004.2 |
| 20260504181017 | 20 | 273 | 12.9 | 29.0 | 0.00 | 0.00 | 0.00 | 30 | 1004.3 |
| 20260504180506 | 21 | 238 | 9.7 | 29.0 | 0.00 | 0.00 | 0.00 | 31 | 1004.2 |
| 20260504180020 | 22 | 290 | 12.9 | 29.0 | 0.00 | 0.00 | 0.00 | 31 | 1004.3 |
| 20260504175510 | 21 | 246 | 12.9 | 29.0 | 0.00 | 0.00 | 0.00 | 29 | 1004.2 |
| 20260504175008 | 21 | 256 | 14.5 | 27.4 | 0.00 | 0.00 | 0.00 | 29 | 1004.3 |
| 20260504174522 | 21 | 172 | 12.9 | 33.8 | 0.00 | 0.00 | 0.00 | 30 | 1004.4 |
| 20260504174010 | 21 | 296 | 16.1 | 33.8 | 0.00 | 0.00 | 0.00 | 30 | 1004.3 |
| 20260504173510 | 22 | 298 | 9.7 | 25.7 | 0.00 | 0.00 | 0.00 | 28 | 1004.4 |
| 20260504173026 | 22 | 248 | 4.8 | 22.5 | 0.00 | 0.00 | 0.00 | 30 | 1004.4 |
| 20260504172512 | 22 | 215 | 9.7 | 25.7 | 0.00 | 0.00 | 0.00 | 29 | 1004.3 |
| 20260504172005 | 21 | 338 | 6.4 | 25.7 | 0.00 | 0.00 | 0.00 | 29 | 1004.5 |
| 20260504171513 | 21 | 275 | 11.3 | 27.4 | 0.00 | 0.00 | 0.00 | 29 | 1004.5 |
| 20260504171012 | 21 | 284 | 11.3 | 29.0 | 0.00 | 0.00 | 0.00 | 29 | 1004.5 |
| 20260504170509 | 20 | 263 | 11.3 | 29.0 | 0.00 | 0.00 | 0.00 | 31 | 1004.6 |
| 20260504151009 | 18 | 285 | 4.8 | 25.7 | 0.00 | 0.00 | 0.00 | 38 | 1005.5 |
| 20260504150509 | 18 | 309 | 8.0 | 25.7 | 0.00 | 0.00 | 0.00 | 36 | 1005.4 |
| 20260504141015 | 16 | 247 | 4.8 | 16.1 | 0.00 | 0.00 | 0.00 | 44 | 1006.3 |
| 20260504140504 | 15 | 252 | 11.3 | 16.1 | 0.00 | 0.00 | 0.00 | 44 | 1006.5 |
| 20260504130508 | 13 | 200 | 3.2 | 17.7 | 0.00 | 0.00 | 0.00 | 51 | 1007.1 |
| 20260504110509 | 7 | 217 | 8.0 | 11.3 | 0.00 | 0.00 | 0.00 | 64 | 1007.8 |
| 20260504100508 | 5 | 236 | 3.2 | 12.9 | 0.00 | 0.00 | 0.00 | 66 | 1007.6 |
| 20260504081519 | 4 | 279 | 0.0 | 3.2 | 0.00 | 0.00 | 0.00 | 69 | 1007.6 |
| 20260504081008 | 4 | 279 | 0.0 | 3.2 | 0.00 | 0.00 | 0.00 | 69 | 1007.5 |
| 20260504080509 | 4 | 279 | 0.0 | 3.2 | 0.00 | 0.00 | 0.00 | 68 | 1007.5 |
| 20260504050514 | 3 | 252 | 0.0 | 3.2 | 0.00 | 0.00 | 0.00 | 70 | 1007.5 |
| 20260504050018 | 3 | 252 | 0.0 | 3.2 | 0.00 | 0.00 | 0.00 | 69 | 1007.6 |
| 20260504045507 | 3 | 252 | 0.0 | 3.2 | 0.00 | 0.00 | 0.00 | 70 | 1007.6 |
| 20260504045006 | 3 | 252 | 0.0 | 3.2 | 0.00 | 0.00 | 0.00 | 68 | 1007.6 |
| 20260504044523 | 3 | 252 | 0.0 | 3.2 | 0.00 | 0.00 | 0.00 | 68 | 1007.6 |
| 20260504044005 | 3 | 252 | 0.0 | 3.2 | 0.00 | 0.00 | 0.00 | 68 | 1007.6 |
| 20260504043504 | 3 | 252 | 0.0 | 3.2 | 0.00 | 0.00 | 0.00 | 68 | 1007.7 |
| 20260504043004 | 3 | 252 | 0.0 | 3.2 | 0.00 | 0.00 | 0.00 | 68 | 1007.6 |
| 20260504042504 | 3 | 252 | 0.0 | 3.2 | 0.00 | 0.00 | 0.00 | 68 | 1007.5 |
| 20260504042004 | 3 | 252 | 0.0 | 3.2 | 0.00 | 0.00 | 0.00 | 69 | 1007.5 |
| 20260504041510 | 3 | 252 | 0.0 | 3.2 | 0.00 | 0.00 | 0.00 | 70 | 1007.6 |
| 20260504041004 | 3 | 252 | 0.0 | 3.2 | 0.00 | 0.00 | 0.00 | 69 | 1007.4 |
| 20260504040504 | 3 | 252 | 0.0 | 3.2 | 0.00 | 0.00 | 0.00 | 69 | 1007.4 |
| 20260504040014 | 3 | 252 | 0.0 | 1.6 | 0.00 | 0.00 | 0.00 | 69 | 1007.4 |
| 20260504035507 | 3 | 252 | 0.0 | 1.6 | 0.00 | 0.00 | 0.00 | 68 | 1007.4 |
| 20260504035008 | 3 | 252 | 0.0 | 3.2 | 0.00 | 0.00 | 0.00 | 67 | 1007.4 |
| 20260504034535 | 3 | 252 | 0.0 | 3.2 | 0.00 | 0.00 | 0.00 | 67 | 1007.3 |
| 20260504034008 | 3 | 242 | 0.0 | 3.2 | 0.00 | 0.00 | 0.00 | 66 | 1007.3 |
| 20260504033512 | 3 | 242 | 0.0 | 3.2 | 0.00 | 0.00 | 0.00 | 67 | 1007.3 |
| 20260504033029 | 3 | 242 | 0.0 | 3.2 | 0.00 | 0.00 | 0.00 | 67 | 1007.3 |
| 20260504032506 | 3 | 242 | 0.0 | 0.0 | 0.00 | 0.00 | 0.00 | 66 | 1007.2 |
| 20260504032004 | 3 | 242 | 0.0 | 1.6 | 0.00 | 0.00 | 0.00 | 66 | 1007.2 |
| 20260504031509 | 3 | 242 | 0.0 | 3.2 | 0.00 | 0.00 | 0.00 | 65 | 1007.2 |
| 20260504031004 | 3 | 242 | 0.0 | 3.2 | 0.00 | 0.00 | 0.00 | 66 | 1007.2 |
| 20260504030504 | 3 | 242 | 0.0 | 3.2 | 0.00 | 0.00 | 0.00 | 69 | 1007.1 |
| 20260504030012 | 3 | 242 | 0.0 | 3.2 | 0.00 | 0.00 | 0.00 | 68 | 1007.2 |
| 20260504025507 | 4 | 242 | 0.0 | 3.2 | 0.00 | 0.00 | 0.00 | 66 | 1007.1 |
| 20260504025003 | 4 | 242 | 0.0 | 4.8 | 0.00 | 0.03 | 0.00 | 65 | 1007.0 |
| 20260504024519 | 4 | 242 | 0.0 | 4.8 | 0.00 | 0.03 | 0.00 | 65 | 1007.0 |
| 20260504024004 | 4 | 242 | 1.6 | 4.8 | 0.00 | 0.03 | 0.00 | 65 | 1007.1 |
| 20260504023508 | 4 | 242 | 0.0 | 3.2 | 0.00 | 0.03 | 0.00 | 65 | 1007.0 |
| 20260504023020 | 3 | 242 | 0.0 | 3.2 | 0.00 | 0.03 | 0.00 | 67 | 1007.0 |
| 20260504022508 | 3 | 242 | 0.0 | 3.2 | 0.00 | 0.03 | 0.00 | 68 | 1007.0 |
| 20260504022011 | 3 | 242 | 0.0 | 3.2 | 0.00 | 0.03 | 0.00 | 68 | 1007.0 |
| 20260504021524 | 3 | 242 | 0.0 | 3.2 | 0.00 | 0.03 | 0.00 | 68 | 1006.9 |
| 20260504021002 | 3 | 242 | 0.0 | 3.2 | 0.00 | 0.03 | 0.00 | 70 | 1007.0 |
| 20260504020505 | 3 | 242 | 0.0 | 0.0 | 0.00 | 0.03 | 0.00 | 68 | 1007.0 |
| 20260504020010 | 3 | 242 | 0.0 | 0.0 | 0.00 | 0.03 | 0.00 | 68 | 1007.1 |
| 20260504015507 | 3 | 242 | 0.0 | 0.0 | 0.00 | 0.03 | 0.00 | 69 | 1007.1 |